Home > Weather > Rotterdam > Past weeks

Flag for Netherlands Past Weather in Rotterdam, Netherlands — Yesterday and Last 2 Weeks

Now
59 °F

Clear.


Feels Like: 57 °F
Forecast: 58 / 65 °F
Wind: 9 mph from Southwest

Location: Rotterdam Zestienhoven Airport

Current Time: Jun 29, 2016 at 10:08:23 PM

Latest Report: Jun 29, 2016 at 9:25 PM


Visibility: N/A

Pressure: 29.83 "Hg

Humidity: 88%

Dew Point: 55 °F

Location of RotterdamLocation

Past Weather in Rotterdam — Graph

°F

Rotterdam Temperature Yesterday

Maximum temperature yesterday: 72 °F (at 3:55 PM)
Minimum temperature yesterday: 50 °F (at 4:55 AM)
Average temperature yesterday: 62 °F

High & Low Weather Summary for the Past Weeks

 TemperatureHumidityPressure
High81 °F (Jun 23, 4:25 PM)100% (Jun 16, 3:25 AM)30.27 "Hg (Jun 16, 3:25 AM)
Low50 °F (Jun 16, 5:25 AM)53% (Jun 16, 12:25 PM)29.45 "Hg (Jun 14, 8:25 PM)
Average62 °F83%29.93 "Hg
* Reported Jun 14 8:25 PM — Jun 29 8:25 PM, Rotterdam, Weather by CustomWeather, © 2016

Note: Actual official high and low records may vary slightly from our data, if they occured in-between our weather recording intervals... More about our weather records

Advertising

Rotterdam Weather History for the Previous 24 Hours

Scroll right to see more
 ConditionsComfort  
Time TempWeatherWind HumidityBarometerVisibility
8:25 PM
Wed, Jun 29
59 °FLight rain. Passing clouds.14 mph82%29.83 "HgN/A
7:55 PM61 °FLight rain. Clear.15 mph77%29.83 "HgN/A
7:25 PM61 °FLight rain. Passing clouds.13 mph83%29.86 "HgN/A
6:55 PM63 °FLight rain. Scattered clouds.14 mph73%29.83 "HgN/A
6:25 PM64 °FScattered clouds.20 mph60%29.83 "HgN/A
5:55 PM66 °FScattered clouds.20 mph60%29.83 "HgN/A
5:25 PM66 °FPassing clouds.20 mph60%29.83 "HgN/A
4:55 PM68 °FPassing clouds.18 mph56%29.83 "HgN/A
4:25 PM68 °FScattered clouds.21 mph56%29.83 "HgN/A
3:55 PM70 °FScattered clouds.18 mph57%29.86 "HgN/A
3:25 PM70 °FScattered clouds.15 mph60%29.86 "HgN/A
2:55 PM66 °FPassing clouds.17 mph60%29.86 "HgN/A
2:25 PM66 °FScattered clouds.16 mph64%29.86 "HgN/A
1:55 PM63 °FBroken clouds.18 mph68%29.86 "HgN/A
1:25 PM64 °FPartly sunny.16 mph64%29.86 "HgN/A
12:55 PM64 °FPartly sunny.17 mph68%29.86 "HgN/A
12:25 PM61 °FPassing clouds.15 mph77%29.86 "HgN/A
11:55 AM61 °FBroken clouds.18 mph77%29.86 "HgN/A
11:25 AM61 °FBroken clouds.17 mph77%29.86 "HgN/A
10:55 AM63 °FScattered clouds.15 mph77%29.83 "HgN/A
10:25 AM61 °FBroken clouds.14 mph83%29.83 "HgN/A
9:55 AM61 °FBroken clouds.13 mph83%29.83 "HgN/A
9:25 AM61 °FBroken clouds.14 mph83%29.83 "HgN/A
8:55 AM61 °FBroken clouds.10 mph83%29.80 "HgN/A
8:25 AM59 °FScattered clouds.12 mph88%29.80 "HgN/A
7:55 AM59 °FBroken clouds.13 mph88%29.80 "HgN/A
7:25 AM59 °FPassing clouds.10 mph88%29.77 "HgN/A
6:55 AM57 °FBroken clouds.10 mph94%29.77 "HgN/A
6:25 AM57 °FDrizzle. Mostly cloudy.12 mph94%29.77 "HgN/A
5:55 AM57 °FPassing clouds.15 mph94%29.77 "HgN/A
5:25 AM57 °FLight rain. Partly cloudy.16 mph88%29.77 "HgN/A
4:55 AM57 °FPartly cloudy.18 mph88%29.77 "HgN/A
4:25 AM59 °FPartly cloudy.18 mph82%29.77 "HgN/A
3:55 AM57 °FPassing clouds.16 mph88%29.77 "HgN/A
3:25 AM59 °FPassing clouds.14 mph88%29.77 "HgN/A
2:55 AM59 °FPassing clouds.10 mph88%29.77 "HgN/A
2:25 AM59 °FPassing clouds.10 mph88%29.80 "HgN/A
1:55 AM57 °FMostly cloudy.8 mph94%29.80 "HgN/A
1:25 AM57 °FPassing clouds.6 mph94%29.80 "HgN/A
12:55 AM57 °FLight rain. Passing clouds.6 mph94%29.80 "HgN/A
12:25 AM57 °FLight rain. Passing clouds.6 mph94%29.83 "HgN/A
11:55 PM
Tue, Jun 28
57 °FRain showers. Partly cloudy.7 mph94%29.83 "HgN/A
11:25 PM57 °FRain showers. Passing clouds.9 mph94%29.86 "Hg6 mi
10:55 PM61 °FSprinkles. Scattered clouds.9 mph83%29.83 "HgN/A
10:25 PM61 °FHeavy rain. Passing clouds.3 mph88%29.83 "Hg4 mi
Weather by CustomWeather, © 2016

See weather overviewHow to use our weather pages